When you browse on this site, cookies collect data to enhance your experience and personalize the content and advertising you see.
Visit our Privacy Policy to learn more. By continuing to use the site, you agree to this use of cookies and data.
  • în România
  • Lista ţărilor
  • Pe 7 zile
  • Temperatura apei
  • Hartă satelitară
  • Meteo pe hartă
  • Widget-uri
  • user-avatar
    Intrare

    Meteo pe oră la Santiago del Estero

    Astăzi, 18 Ianuarie, Vineri

    Timp Temperatura Precipitaţii Vânt Presiune Umiditate
    00:00 +19°C° 0 mm 6 m/s 748 mmHg 70%
    01:00 +19°C° 0 mm 5 m/s 748 mmHg 71%
    02:00 +19°C° 0 mm 5 m/s 748 mmHg 72%
    03:00 +18°C° 0 mm 4 m/s 748 mmHg 73%
    04:00 +18°C° 0 mm 4 m/s 748 mmHg 74%
    05:00 +17°C° 0 mm 3 m/s 748 mmHg 75%
    06:00 +18°C° 0 mm 3 m/s 748 mmHg 72%
    07:00 +19°C° 0 mm 4 m/s 749 mmHg 69%
    08:00 +20°C° 0 mm 4 m/s 749 mmHg 66%
    09:00 +21°C° 0 mm 4 m/s 749 mmHg 61%
    10:00 +23°C° 0 mm 4 m/s 749 mmHg 57%
    11:00 +26°C° 0 mm 4 m/s 749 mmHg 52%
    12:00 +26°C° 0 mm 4 m/s 748 mmHg 49%
    13:00 +27°C° 0 mm 4 m/s 747 mmHg 47%
    14:00 +28°C° 0 mm 4 m/s 747 mmHg 44%
    15:00 +28°C° 0 mm 4 m/s 746 mmHg 44%
    16:00 +28°C° 0 mm 4 m/s 746 mmHg 45%
    17:00 +28°C° 0 mm 3 m/s 746 mmHg 45%
    18:00 +27°C° 0 mm 3 m/s 746 mmHg 51%
    19:00 +25°C° 0 mm 3 m/s 746 mmHg 56%
    20:00 +23°C° 0 mm 2 m/s 746 mmHg 62%
    21:00 +22°C° 0 mm 3 m/s 747 mmHg 67%
    22:00 +21°C° 0 mm 3 m/s 747 mmHg 72%
    23:00 +20°C° 0 mm 3 m/s 748 mmHg 77%

    Mâine, 19 Ianuarie, Sâmbătă

    Timp Temperatura Precipitaţii Vânt Presiune Umiditate
    00:00 +20°C° 0 mm 2 m/s 747 mmHg 81%
    01:00 +19°C° 0 mm 2 m/s 747 mmHg 86%
    02:00 +19°C° 0 mm 1 m/s 747 mmHg 90%
    03:00 +19°C° 0 mm 1 m/s 747 mmHg 91%
    04:00 +18°C° 0 mm 1 m/s 747 mmHg 91%
    05:00 +18°C° 0 mm 1 m/s 747 mmHg 92%
    06:00 +19°C° 0 mm 1 m/s 747 mmHg 87%
    07:00 +21°C° 0 mm 1 m/s 748 mmHg 81%
    08:00 +22°C° 0 mm 1 m/s 748 mmHg 76%
    09:00 +24°C° 0 mm 1 m/s 748 mmHg 70%
    10:00 +25°C° 0 mm 1 m/s 748 mmHg 64%
    11:00 +27°C° 0 mm 2 m/s 747 mmHg 57%
    12:00 +28°C° 0 mm 2 m/s 747 mmHg 54%
    13:00 +29°C° 0 mm 2 m/s 746 mmHg 51%
    14:00 +30°C° 0 mm 3 m/s 745 mmHg 47%
    15:00 +30°C° 0 mm 3 m/s 744 mmHg 46%
    16:00 +30°C° 0 mm 3 m/s 744 mmHg 45%
    17:00 +30°C° 0 mm 3 m/s 743 mmHg 44%
    18:00 +29°C° 0 mm 3 m/s 743 mmHg 50%
    19:00 +27°C° 0 mm 3 m/s 743 mmHg 55%
    20:00 +25°C° 0 mm 3 m/s 744 mmHg 61%
    21:00 +24°C° 0 mm 3 m/s 744 mmHg 65%
    22:00 +24°C° 0 mm 3 m/s 745 mmHg 69%
    23:00 +22°C° 0 mm 3 m/s 745 mmHg 73%

    Poimâine, 20 Ianuarie, Duminică

    Timp Temperatura Precipitaţii Vânt Presiune Umiditate
    00:00 +22°C° 0 mm 3 m/s 745 mmHg 76%
    01:00 +21°C° 0 mm 3 m/s 744 mmHg 80%
    02:00 +20°C° 0 mm 3 m/s 744 mmHg 84%
    03:00 +20°C° 0 mm 2 m/s 743 mmHg 88%
    04:00 +20°C° 0 mm 2 m/s 743 mmHg 91%
    05:00 +19°C° 0 mm 2 m/s 743 mmHg 94%
    06:00 +20°C° 0 mm 2 m/s 743 mmHg 89%
    07:00 +23°C° 0 mm 2 m/s 743 mmHg 84%
    08:00 +24°C° 0 mm 3 m/s 743 mmHg 78%
    09:00 +25°C° 0 mm 3 m/s 743 mmHg 71%
    10:00 +27°C° 0 mm 3 m/s 743 mmHg 64%
    11:00 +29°C° 0 mm 3 m/s 743 mmHg 56%
    12:00 +30°C° 0 mm 3 m/s 742 mmHg 53%
    13:00 +32°C° 0 mm 4 m/s 741 mmHg 50%
    14:00 +33°C° 0 mm 4 m/s 740 mmHg 47%
    15:00 +33°C° 0 mm 4 m/s 740 mmHg 46%
    16:00 +34°C° 0 mm 4 m/s 739 mmHg 45%
    17:00 +34°C° 0 mm 4 m/s 738 mmHg 44%
    18:00 +32°C° 0 mm 4 m/s 739 mmHg 50%
    19:00 +29°C° 0 mm 4 m/s 739 mmHg 56%
    20:00 +27°C° 0 mm 3 m/s 739 mmHg 62%
    21:00 +27°C° 0 mm 3 m/s 740 mmHg 66%
    22:00 +26°C° 0 mm 4 m/s 740 mmHg 70%
    23:00 +25°C° 0 mm 4 m/s 741 mmHg 73%

    21 Ianuarie, Luni

    Timp Temperatura Precipitaţii Vânt Presiune Umiditate
    00:00 +25°C° 0 mm 3 m/s 741 mmHg 75%
    01:00 +25°C° 0 mm 2 m/s 740 mmHg 77%
    02:00 +24°C° 0 mm 2 m/s 740 mmHg 80%
    03:00 +24°C° 0 mm 1 m/s 740 mmHg 81%
    04:00 +23°C° 0 mm 1 m/s 740 mmHg 83%
    05:00 +23°C° 0 mm 1 m/s 740 mmHg 84%
    06:00 +24°C° 0 mm 1 m/s 740 mmHg 80%
    07:00 +25°C° 0 mm 1 m/s 741 mmHg 76%
    08:00 +26°C° 0 mm 1 m/s 742 mmHg 72%
    09:00 +28°C° 0 mm 2 m/s 742 mmHg 65%
    10:00 +30°C° 0 mm 2 m/s 742 mmHg 59%
    11:00 +32°C° 0 mm 2 m/s 742 mmHg 52%
    12:00 +34°C° 0 mm 3 m/s 742 mmHg 48%
    13:00 +35°C° 0 mm 3 m/s 741 mmHg 45%
    14:00 +36°C° 0 mm 3 m/s 740 mmHg 41%
    15:00 +36°C° 0 mm 3 m/s 740 mmHg 42%
    16:00 +36°C° 0 mm 3 m/s 739 mmHg 43%
    17:00 +36°C° 0 mm 3 m/s 738 mmHg 43%
    18:00 +34°C° 0 mm 2 m/s 739 mmHg 48%
    19:00 +32°C° 0 mm 2 m/s 739 mmHg 53%
    20:00 +30°C° 0 mm 1 m/s 739 mmHg 58%
    21:00 +30°C° 0 mm 2 m/s 739 mmHg 61%
    22:00 +29°C° 0 mm 2 m/s 739 mmHg 63%
    23:00 +29°C° 0 mm 3 m/s 740 mmHg 66%

    22 Ianuarie, Marţi

    Timp Temperatura Precipitaţii Vânt Presiune Umiditate
    00:00 +28°C° 0 mm 3 m/s 739 mmHg 68%
    01:00 +28°C° 0 mm 3 m/s 739 mmHg 70%
    02:00 +28°C° 0 mm 3 m/s 738 mmHg 72%
    03:00 +27°C° 0 mm 2 m/s 738 mmHg 73%
    04:00 +27°C° 0 mm 2 m/s 738 mmHg 75%
    05:00 +26°C° 0 mm 2 m/s 738 mmHg 76%
    06:00 +27°C° 0 mm 2 m/s 738 mmHg 74%
    07:00 +28°C° 0 mm 3 m/s 738 mmHg 71%
    08:00 +29°C° 0 mm 3 m/s 738 mmHg 69%
    09:00 +31°C° 0 mm 3 m/s 738 mmHg 63%
    10:00 +33°C° 0 mm 3 m/s 738 mmHg 57%
    11:00 +35°C° 0 mm 4 m/s 738 mmHg 51%
    12:00 +37°C° 0 mm 4 m/s 737 mmHg 47%
    13:00 +40°C° 0 mm 5 m/s 736 mmHg 42%
    14:00 +41°C° 0 mm 5 m/s 736 mmHg 37%
    15:00 +42°C° 0 mm 5 m/s 735 mmHg 36%
    16:00 +43°C° 0 mm 5 m/s 735 mmHg 34%
    17:00 +43°C° 0 mm 5 m/s 734 mmHg 33%
    18:00 +41°C° 0 mm 4 m/s 735 mmHg 37%
    19:00 +38°C° 0 mm 3 m/s 735 mmHg 41%
    20:00 +36°C° 0 mm 2 m/s 735 mmHg 45%
    21:00 +35°C° 0 mm 2 m/s 736 mmHg 49%
    22:00 +34°C° 0 mm 2 m/s 736 mmHg 54%
    23:00 +32°C° 0 mm 2 m/s 737 mmHg 59%

    23 Ianuarie, Miercuri

    Timp Temperatura Precipitaţii Vânt Presiune Umiditate
    00:00 +31°C° 0 mm 2 m/s 736 mmHg 61%
    01:00 +31°C° 0 mm 1 m/s 736 mmHg 63%
    02:00 +30°C° 0 mm 1 m/s 736 mmHg 65%
    03:00 +30°C° 0 mm 2 m/s 736 mmHg 65%
    04:00 +30°C° 0 mm 2 m/s 736 mmHg 65%
    05:00 +30°C° 0 mm 2 m/s 736 mmHg 65%
    06:00 +31°C° 0 mm 2 m/s 737 mmHg 63%
    07:00 +33°C° 0 mm 3 m/s 737 mmHg 60%
    08:00 +35°C° 0 mm 3 m/s 737 mmHg 58%
    09:00 +37°C° 0 mm 3 m/s 737 mmHg 51%
    10:00 +39°C° 0 mm 3 m/s 738 mmHg 45%
    11:00 +42°C° 0 mm 3 m/s 738 mmHg 38%
    12:00 +43°C° 0 mm 4 m/s 737 mmHg 35%
    13:00 +44°C° 0 mm 4 m/s 737 mmHg 32%
    14:00 +45°C° 0 mm 4 m/s 736 mmHg 29%
    15:00 +45°C° 0 mm 4 m/s 736 mmHg 29%
    16:00 +44°C° 0 mm 4 m/s 735 mmHg 29%
    17:00 +44°C° 0 mm 4 m/s 735 mmHg 29%
    18:00 +42°C° 0 mm 4 m/s 735 mmHg 36%
    19:00 +40°C° 0 mm 5 m/s 736 mmHg 44%
    20:00 +36°C° 0 mm 5 m/s 736 mmHg 52%
    21:00 +35°C° 0 mm 4 m/s 736 mmHg 57%
    22:00 +34°C° 0 mm 4 m/s 737 mmHg 62%
    23:00 +33°C° 0 mm 3 m/s 737 mmHg 67%
    Arată mai mult